Showing default

ZHUHAI-1 03E, 44539

Orbit data source: Space-Track

ZHUHAI-1 03E, 44539 is a payload satellite owned by Zhuhai Orbita (CN) in SSO that was launched on Thu, 19 Sep 2019 UTC via a CHANG ZHENG 11 launch vehicle from the Jiuquan Satellite Launch Center, China (JSC). Payload-class satellites include a variety of spacecraft equipped with specific instruments for various scientific and technological missions. These include communications satellites like Starlink; space stations such as the ISS; scientific satellites like the Hubble; Earth observation satellites from companies like Planet Labs, Umbra, and HawkEye 360; GPS; miniature CubeSats for education and research; and military/defense satellites.

Loading next visibility...
Identifier
44539, 2019-060F
Orbit
SSO
Country
Flag of CNCN / PRC
Related business
Manufacturer
Harbin
Mission
Operational Commercial Imaging
Bus & Motor
OVS-1, Unknown motor
Mass
95 kg wet, 95 kg dry
Launch date (UTC)
2019-09-19 (6 years ago)
Launch vehicle
CHANG ZHENG 11
Launch site
Jiuquan Satellite Launch Center, China (JSC)
Object type
Payload
Rocket body
Debris
Shape & HBR
Box, Unknown HBR
Radar Cross Section
0.375 m², Medium (>0.1 m² and < 1m²)

Expand to show TLE details & history
Last TLE update: 8 hours ago

TLE from 8 hours ago
0 ZHUHAI-1 03E
1 44539U 19060F   25353.94982130  .00013522  00000-0  42108-3 0  9996
2 44539  97.5390 133.9277 0006407 308.2756  51.7909 15.33387307348220
Epoch: 2025-12-19T22:47Z
TLE epoch observation values (Epoch: 2025-12-19T22:47:44.560Z)
Latitude
-0.00002°
Longitude
63.2084°
Altitude
466.108 km
Speed
7.635 km/s
True Right ascension
08h 55m 42s
True Declination
0° 00' 00"
Sunlit
Object was in full shadow at epoch
Visualization orbit readout
Latitude
Unknown
Longitude
Unknown
Altitude
Unknown
Speed
Unknown
Apparent Right ascension
Unknown
Apparent Declination
Unknown
Sunlit
N/A
Visualization observer readout
Local Sidereal Time
05:23:08
Azimuth
Unknown
Elevation
Unknown
Doppler factor
Unknown
Orbital elements
Apogee altitude
467.052 km
Perigee altitude
458.286 km
Semi-major axis
6,840.806 km
Eccentricity
0.00064
Inclination
97.539°
RAAN
133.9277°
Arg. of periapsis
308.2756°
True anomaly
51.84862°
Mean anomaly
51.7909°
Eccentric anomaly
51.81976°
Mean motion
3.83603 °/min
Orbital period
93.85 mins
BSTAR
0.00042108
Loading maneuver chart data...
Computing Atmospheric mass density...
Loading historical data...
Loading historical data...
Loading historical data...
Loading historical data...
Loading historical data...
Loading historical data...
Loading historical data...

Documentation

Showing up to 5 results
|